Wind_Speed
18 18 17 15 18 16 12 11 6 3 4 4 7 8 9 6 4 3 2 2 3 6 8 6 7 8 9 10 11 10 10 6 10 6 5 8 15 20 22 5 6 12 7 8
20 18 17 12 13 15 12 8 7 3 2 4 5 7 6 5 4 4 4 6 6 6 9 6 6 8 11 10 11 10 11 7 10 4 3 8 16 17 19 17 10 6 7 14
20 18 17 14 11 13 14 11 6 6 2 3 4 4 5 5 6 6 6 7 7 9 9 8 7 10 7 12 9 10 11 8 8 8 14 19 22 15 12 16 6 16 14 29
18 17 16 15 11 11 12 12 10 8 3 1 2 4 5 5 5 7 7 6 7 8 7 11 10 8 8 11 9 11 12 9 12 19 19 10 14 16 11 11 10 8 20 25
17 17 15 14 13 10 11 11 11 8 6 4 4 3 4 6 7 7 7 9 9 10 10 9 13 13 9 5 8 14 12 8 19 19 4 9 20 9 8 8 8 11 13 19
17 17 17 15 14 12 11 10 9 8 7 6 6 6 6 6 7 7 8 10 11 12 12 12 12 13 12 14 12 11 11 11 16 5 14 15 3 7 5 7 7 9 8 12
16 16 16 15 13 13 12 11 10 8 6 6 7 8 7 8 9 10 9 10 12 11 13 16 17 17 14 14 13 13 12 12 10 10 13 3 4 10 9 10 8 5 7 11
16 14 15 15 14 12 11 11 11 11 8 6 5 6 8 8 9 11 11 11 12 13 14 16 12 9 9 6 7 10 10 9 7 5 10 15 3 4 8 11 8 7 6 8
18 16 15 16 16 14 13 11 11 12 11 6 6 7 9 11 12 9 9 10 11 12 13 10 4 4 6 4 5 6 9 10 9 5 4 4 5 9 10 11 2 10 9 9
20 19 16 16 16 16 15 13 11 11 13 9 9 9 10 11 11 12 12 10 11 12 9 9 5 5 7 5 5 5 7 11 17 15 9 10 9 8 8 4 6 12 10 12
20 19 19 16 16 17 18 17 13 13 12 13 10 12 11 11 10 11 11 12 6 7 5 5 5 6 6 9 10 11 7 5 6 6 8 6 2 5 5 10 13 14 12 11
23 19 20 19 17 16 17 19 17 15 14 15 15 13 11 9 10 11 10 11 11 6 6 7 8 13 16 14 9 10 8 11 7 9 8 18 20 21 19 17 18 15 13 13
22 20 19 21 20 18 17 18 20 19 18 17 13 10 10 11 12 12 12 12 14 14 14 16 15 14 17 15 16 18 18 18 23 23 6 14 19 21 21 17 18 18 14 13
21 21 21 23 24 20 18 18 20 21 21 22 5 13 13 15 16 14 14 15 17 17 17 19 20 22 20 25 26 33 30 31 31 32 15 13 12 15 15 17 15 16 15 13
23 23 18 21 19 17 17 18 21 21 20 23 19 18 19 15 17 18 17 15 16 18 19 21 22 23 26 29 31 24 19 19 18 20 16 14 11 11 11 10 12 15 17 15
26 27 28 24 25 20 18 19 20 16 18 27 28 18 18 19 21 20 17 15 15 18 20 20 24 21 20 18 28 23 19 18 19 18 19 23 22 15 13 13 18 16 15 16
29 31 30 29 27 26 22 20 22 23 23 22 23 17 9 12 12 15 17 19 18 19 23 25 24 25 25 34 32 15 8 13 16 18 22 24 20 20 20 17 15 18 16 17
32 33 33 33 32 31 30 25 22 22 23 23 12 16 15 16 17 19 21 24 22 22 24 29 27 27 29 27 8 12 18 23 25 27 28 26 24 17 16 19 24 21 19 18
33 34 35 36 37 38 33 31 29 26 25 18 22 27 25 17 16 17 18 19 19 23 28 30 23 27 25 20 22 23 20 20 18 23 26 27 27 27 33 34 30 28 21 20
34 38 37 39 42 38 36 34 34 34 34 39 43 38 35 32 26 18 13 13 11 13 16 18 21 36 20 19 20 18 16 20 22 20 19 24 28 28 27 29 32 30 26 22
40 42 42 42 39 35 32 25 18 16 21 29 34 28 25 27 31 26 11 9 7 7 10 12 13 34 24 13 17 17 18 25 27 29 29 28 32 33 31 31 29 32 31 27
45 44 44 43 39 29 18 17 17 22 21 28 24 17 19 23 27 22 13 15 9 10 12 9 12 13 10 11 16 23 26 26 28 30 31 32 33 38 38 32 32 31 33 34
45 42 42 29 23 26 21 26 28 22 25 26 23 20 21 20 22 16 11 10 11 10 10 12 24 17 19 20 21 24 28 28 28 28 28 28 27 30 33 29 31 32 35 35
48 43 31 22 21 24 52 54 41 32 27 25 22 23 19 23 19 14 9 13 10 10 15 28 28 24 21 21 25 25 25 30 34 36 36 36 36 34 32 31 28 29 33 34
54 34 23 45 58 53 29 20 23 28 30 28 25 28 28 21 17 11 13 10 12 14 24 21 16 19 22 24 26 27 29 33 36 37 41 44 43 40 36 34 29 28 30 36
53 36 47 61 51 48 49 47 39 32 29 33 32 30 15 19 15 17 20 14 15 25 28 27 29 28 29 29 30 34 37 38 39 40 44 46 40 32 30 28 26 28 27 32
51 62 70 69 65 51 40 40 37 35 40 44 29 23 22 17 19 27 31 46 45 38 36 34 34 34 33 33 37 38 42 46 48 49 47 45 39 32 27 25 26 26 29 28
Wind_Direction
4 5 8 9 13 14 11 13 7 41 99 133 166 180 168 177 192 249 264 308 300 329 343 335 349 352 351 353 354 353 349 309 321 271 275 350 1 2 3 306 319 311 266 297
11 8 9 9 15 18 18 10 24 65 114 140 190 185 198 202 220 248 283 295 298 306 318 325 323 339 340 345 345 346 341 328 328 346 307 328 340 344 348 345 328 309 321 307
6 11 10 12 16 22 27 26 25 36 80 148 194 216 230 248 254 260 273 286 299 307 310 292 290 313 329 330 328 335 333 308 287 258 296 307 305 328 334 343 336 324 347 341
2 7 12 12 16 21 31 31 33 32 29 4 269 257 268 252 267 278 274 284 286 300 308 310 296 299 309 318 320 330 332 310 311 313 302 292 309 312 319 317 339 4 4 4
354 357 10 14 13 14 20 27 32 29 24 1 337 303 288 275 281 290 290 289 292 296 298 301 307 307 298 283 309 319 324 310 319 332 324 307 309 298 288 295 299 313 349 12
342 348 352 5 8 8 10 12 12 17 11 12 356 336 306 295 284 287 277 286 293 293 295 291 292 294 287 279 288 301 307 323 329 302 321 316 286 336 318 307 305 320 345 347
330 335 341 347 358 2 5 2 358 350 355 353 355 354 333 301 290 284 287 289 295 297 295 295 295 291 285 268 273 275 282 309 316 297 343 336 302 322 318 321 302 322 337 334
318 324 326 330 340 348 352 353 349 349 344 327 330 341 354 345 324 307 298 291 295 302 303 311 312 301 291 286 264 256 267 274 300 296 311 293 255 335 335 333 341 328 334 341
311 315 317 321 326 332 339 346 345 338 339 331 310 312 313 328 332 329 317 304 298 299 302 308 281 299 303 300 284 256 259 250 251 294 289 249 289 323 322 328 322 346 338 346
307 305 310 313 317 318 323 330 336 335 328 325 319 310 308 309 322 328 320 321 310 301 294 289 274 266 280 289 279 267 252 255 248 254 254 271 276 305 309 322 321 336 326 324
304 299 303 306 311 314 316 316 324 327 323 313 314 311 310 310 307 319 317 316 323 300 288 285 291 276 267 271 268 274 262 257 244 208 224 279 239 308 297 311 316 317 319 315
310 299 295 298 302 305 305 309 313 315 317 310 306 302 295 304 302 304 309 297 293 277 284 287 291 284 285 278 278 280 259 234 261 244 263 285 290 291 293 297 287 290 297 300
299 293 288 291 296 296 298 300 305 307 311 308 305 295 294 301 300 293 290 294 285 280 277 281 283 280 284 284 289 281 279 271 265 284 298 293 292 284 292 296 290 277 275 287
288 293 295 295 299 294 289 292 298 304 309 310 273 309 301 298 289 279 277 275 277 273 270 272 274 282 288 285 290 290 291 287 283 284 310 301 312 291 270 271 293 282 274 271
277 285 284 299 308 306 291 289 293 298 302 295 297 291 290 282 274 274 271 274 274 272 268 268 276 287 292 296 290 302 325 323 306 296 281 283 296 310 289 275 287 280 271 273
269 281 281 282 294 300 301 293 291 297 303 303 305 288 277 274 274 271 260 266 270 269 271 276 278 287 285 280 288 328 321 313 305 296 282 276 275 285 280 281 263 266 267 260
262 263 268 272 275 282 286 288 293 298 304 308 308 301 272 234 249 260 257 271 276 270 270 273 278 285 279 278 291 318 296 309 312 312 296 286 289 283 265 268 269 261 255 250
261 252 254 259 262 268 274 280 285 291 294 297 282 273 272 259 264 262 265 270 273 266 265 274 280 280 274 285 325 290 294 286 286 285 288 293 284 276 291 291 269 267 266 260
257 252 246 252 255 261 268 273 273 273 275 269 264 273 282 267 265 263 266 266 269 270 267 273 275 268 264 314 293 291 293 299 289 278 279 281 283 284 292 290 287 266 261 259
250 239 239 248 254 261 265 267 266 262 264 263 269 271 257 262 261 262 268 276 254 266 270 274 266 275 305 301 285 270 284 307 304 297 282 275 282 292 296 287 280 268 253 245
241 239 235 242 253 257 258 254 236 233 243 259 272 264 259 254 245 248 253 254 261 258 256 254 264 280 305 291 260 253 290 295 293 290 288 282 282 285 287 294 287 269 252 247
245 243 239 238 242 250 250 231 221 227 235 245 247 249 242 233 228 227 235 239 234 241 246 243 258 299 286 277 260 265 281 287 286 287 289 292 292 288 292 292 287 277 262 243
239 233 230 231 234 228 225 214 213 203 233 247 242 219 225 230 218 210 218 220 226 238 238 249 267 275 282 271 276 269 285 284 280 280 285 291 300 299 295 294 279 281 258 252
230 222 210 215 221 221 234 242 251 242 243 240 227 216 215 219 207 209 220 220 219 233 236 250 277 285 277 271 269 275 272 271 274 279 284 286 289 292 299 300 294 284 264 250
221 210 211 230 234 236 244 227 231 236 234 235 220 218 221 213 209 215 217 211 221 221 248 270 269 283 278 271 268 267 264 268 274 281 288 293 298 299 294 291 293 290 274 255
221 221 228 237 237 234 236 240 242 243 226 221 219 214 204 212 218 215 211 219 228 251 270 274 282 285 281 271 269 265 266 271 277 282 286 290 295 294 288 277 287 289 282 266
221 229 237 240 248 249 251 248 243 235 229 227 219 214 208 219 222 225 225 238 270 265 276 279 276 278 274 270 271 268 275 281 287 288 289 288 285 282 280 290 277 283 279 266
Height
3109 3107 3102 3098 3095 3092 3091 3089 3088 3086 3085 3086 3085 3086 3085 3085 3085 3085 3085 3085 3085 3084 3083 3081 3081 3080 3079 3077 3075 3074 3073 3069 3064 3063 3062 3060 3056 3051 3049 3045 3041 3038 3032 3018
3111 3108 3105 3102 3098 3095 3092 3091 3089 3088 3087 3087 3087 3087 3088 3087 3087 3087 3086 3085 3084 3083 3083 3082 3079 3079 3078 3076 3075 3074 3073 3069 3066 3061 3062 3059 3055 3052 3049 3046 3041 3038 3034 3023
3113 3109 3106 3103 3100 3097 3095 3093 3092 3092 3089 3088 3089 3089 3089 3088 3087 3086 3085 3085 3083 3083 3081 3081 3079 3078 3076 3075 3073 3072 3071 3069 3068 3066 3062 3061 3055 3051 3049 3047 3044 3038 3034 3024
3114 3111 3107 3104 3101 3098 3097 3094 3093 3092 3091 3090 3090 3091 3089 3087 3086 3086 3085 3083 3082 3082 3080 3079 3078 3078 3076 3074 3072 3070 3069 3066 3064 3061 3057 3056 3053 3049 3048 3045 3044 3041 3034 3025
3114 3112 3109 3105 3101 3099 3097 3096 3094 3092 3091 3091 3090 3089 3088 3088 3087 3087 3086 3084 3082 3080 3079 3078 3075 3075 3075 3073 3071 3069 3068 3065 3061 3055 3054 3053 3049 3046 3045 3042 3041 3039 3035 3028
3115 3111 3109 3106 3102 3099 3097 3095 3094 3093 3092 3091 3091 3090 3090 3088 3086 3085 3084 3084 3082 3080 3079 3076 3074 3072 3071 3070 3070 3067 3066 3064 3060 3054 3052 3048 3047 3044 3043 3040 3040 3039 3036 3030
3115 3111 3108 3105 3103 3100 3098 3095 3094 3093 3092 3091 3090 3090 3089 3087 3085 3084 3084 3082 3081 3080 3078 3075 3071 3068 3066 3066 3066 3065 3063 3062 3060 3055 3051 3050 3044 3041 3040 3038 3037 3036 3034 3030
3114 3111 3108 3105 3102 3099 3097 3094 3094 3092 3091 3089 3088 3088 3087 3086 3085 3083 3081 3079 3079 3076 3074 3072 3069 3065 3063 3061 3062 3062 3061 3061 3059 3057 3054 3046 3041 3040 3039 3037 3037 3034 3032 3029
3114 3111 3108 3105 3102 3099 3096 3094 3092 3091 3090 3088 3086 3085 3085 3085 3083 3081 3079 3077 3075 3074 3071 3070 3069 3066 3063 3061 3059 3058 3058 3057 3059 3057 3056 3048 3040 3039 3039 3037 3035 3032 3030 3028
3111 3110 3107 3104 3101 3098 3096 3093 3090 3089 3088 3086 3085 3083 3082 3081 3080 3079 3076 3075 3073 3072 3071 3068 3066 3065 3064 3060 3058 3055 3055 3054 3052 3053 3052 3041 3039 3038 3038 3038 3040 3033 3031 3028
3107 3106 3104 3102 3100 3098 3095 3092 3089 3088 3085 3083 3082 3080 3079 3078 3076 3075 3076 3074 3072 3070 3069 3070 3067 3062 3061 3058 3056 3053 3053 3051 3047 3045 3045 3040 3037 3037 3037 3037 3033 3031 3029 3028
3104 3102 3101 3098 3097 3095 3092 3089 3087 3084 3083 3082 3078 3077 3075 3075 3074 3072 3072 3071 3069 3069 3069 3068 3066 3063 3059 3054 3052 3050 3048 3046 3045 3042 3035 3032 3032 3032 3030 3030 3029 3029 3028 3026
3097 3096 3094 3093 3091 3090 3088 3085 3083 3082 3080 3079 3076 3073 3073 3071 3069 3068 3068 3067 3065 3065 3064 3063 3062 3060 3056 3053 3048 3046 3045 3044 3038 3037 3031 3029 3028 3027 3026 3025 3025 3025 3024 3023
3092 3091 3089 3087 3085 3084 3082 3081 3079 3078 3077 3073 3073 3071 3069 3067 3065 3063 3061 3061 3060 3059 3059 3058 3056 3055 3052 3046 3044 3040 3040 3037 3033 3028 3027 3025 3023 3021 3021 3021 3020 3020 3020 3019
3086 3085 3084 3082 3080 3078 3077 3075 3074 3073 3075 3070 3069 3067 3065 3061 3060 3058 3057 3057 3056 3054 3053 3051 3051 3049 3047 3041 3035 3030 3031 3029 3026 3022 3023 3021 3020 3019 3018 3017 3017 3016 3015 3015
3080 3079 3078 3077 3076 3075 3073 3070 3068 3067 3068 3065 3062 3060 3056 3054 3054 3053 3053 3052 3051 3050 3048 3047 3044 3044 3044 3036 3027 3029 3027 3023 3020 3019 3018 3016 3014 3015 3014 3013 3013 3012 3012 3012
3071 3071 3071 3070 3069 3068 3069 3068 3065 3061 3061 3062 3056 3052 3048 3047 3048 3048 3049 3048 3048 3046 3044 3040 3040 3039 3038 3030 3023 3024 3021 3020 3018 3014 3010 3009 3011 3008 3007 3007 3007 3007 3007 3007
3062 3061 3062 3062 3061 3060 3060 3061 3060 3058 3055 3055 3054 3049 3047 3046 3043 3043 3042 3041 3041 3040 3037 3033 3033 3032 3028 3021 3020 3019 3017 3015 3013 3010 3008 3005 3004 3005 3004 3003 3002 3000 3002 3003
3051 3052 3053 3052 3051 3051 3054 3054 3052 3052 3054 3047 3043 3043 3043 3039 3037 3036 3036 3035 3034 3033 3031 3028 3027 3020 3015 3016 3014 3012 3010 3007 3004 3003 3002 3001 3000 3000 2999 2997 2996 2995 2995 2995
3041 3040 3042 3041 3040 3044 3045 3043 3041 3039 3039 3033 3030 3033 3033 3036 3034 3032 3033 3029 3029 3024 3024 3021 3014 3003 3010 3007 3005 3005 3005 3003 3001 2999 2998 2996 2994 2993 2991 2989 2988 2987 2989 2988
3026 3027 3030 3031 3032 3035 3035 3032 3026 3026 3022 3019 3019 3020 3021 3021 3025 3026 3028 3024 3023 3020 3018 3017 3004 2994 3001 3000 2999 2998 2998 2997 2994 2992 2990 2989 2986 2984 2984 2983 2980 2980 2980 2981
3015 3017 3018 3021 3025 3028 3027 3014 3013 3008 3011 3006 3010 3013 3013 3012 3013 3017 3017 3017 3016 3012 3009 3007 2994 2994 2993 2994 2994 2993 2991 2989 2988 2985 2984 2981 2979 2977 2975 2975 2973 2971 2972 2972
3003 3006 3009 3015 3015 3008 2997 2990 2985 2986 2993 2997 3000 3003 3006 3006 3009 3010 3011 3007 3007 3004 3000 2990 2985 2988 2987 2987 2986 2985 2984 2982 2980 2978 2976 2974 2973 2970 2967 2965 2964 2962 2961 2963
2989 2990 2992 2994 2983 2968 2964 2969 2978 2985 2987 2991 2991 2995 3000 3000 3003 3005 3002 2998 2997 2992 2985 2973 2979 2980 2980 2979 2978 2977 2977 2974 2971 2969 2967 2966 2964 2963 2960 2957 2954 2952 2952 2953
2971 2971 2966 2953 2953 2957 2961 2966 2971 2976 2980 2985 2985 2987 2990 2993 2994 2994 2992 2988 2979 2973 2967 2970 2971 2972 2973 2972 2970 2969 2965 2964 2962 2960 2958 2956 2954 2952 2951 2949 2946 2944 2943 2943
2950 2949 2947 2942 2941 2941 2951 2958 2963 2969 2971 2974 2977 2977 2979 2982 2982 2974 2970 2967 2960 2962 2964 2963 2964 2963 2962 2962 2960 2958 2956 2953 2952 2950 2950 2948 2945 2943 2941 2939 2937 2936 2933 2933
2925 2927 2932 2934 2939 2938 2946 2952 2956 2959 2959 2960 2965 2962 2964 2965 2961 2952 2947 2947 2953 2956 2957 2957 2955 2954 2953 2952 2949 2947 2946 2944 2941 2940 2938 2937 2935 2934 2931 2929 2927 2926 2924 2923